Terminal Aerodrome Forecast
Issued by NWS Mt. Holly, NJ

Home | Current Version | Previous Version | Text Only | Print | Product List | Glossary On
Versions: 1 2 3 4 5 6 7 8 9 10 11 12 13 14 15 16 17 18 19 20 21 22
000
FTUS41 KPHI 311700
TAFRDG
TAF
KRDG 311737Z 3118/0118 04006KT P6SM SCT050
     FM312100 03005KT P6SM BKN050
     FM010500 01006KT P6SM -SHRA OVC025
     FM011100 01008G16KT 5SM -RA OVC020=

USA.gov is the U.S. government's official web portal to all federal, state and local government web resources and services.